Regional Weather Roundup
Issued by NWS

Home | Current Version | Previous Version | Graphics & Text | Print | Product List | Glossary On
Versions: 1 2 3 4 5 6 7 8 9 10 11 12 13 14 15 16 17 18 19 20 21 22 23 24 25 26 27 28 29 30 31 32 33 34 35 36 37 38 39 40 41 42 43 44 45 46 47 48 49 50
000
ASUS45 KBOU 011407
RWRCO

WEATHER ROUNDUP FOR COLORADO
NATIONAL WEATHER SERVICE DENVER/BOULDER CO
800 AM MDT SUN MAY 01 2016

NOTE: "FAIR" INDICATES FEW OR NO CLOUDS BELOW 12000 FEET WITH NO
SIGNIFICANT WEATHER AND/OR OBSTRUCTIONS TO VISIBILITY.

COZ001>005-013-030-031-011500-
...NORTHWEST COLORADO...

CITY           SKY/WX    TMP DP  RH WIND       PRES   REMARKS
CRAIG          FAIR      38  22  52 E17       30.15R
HAYDEN         FAIR      36  19  51 SE14      30.16R
MEEKER         FAIR      39  23  52 VRB5      30.09R
MOUNT WERNER   NOT AVBL
STEAMBOAT SPGS FAIR      34  19  53 E15G25    30.16R WCI  24
WALDEN         CLOUDY    28  19  69 NE16      30.23S WCI  17
$$

COZ006>008-011-011500-
...WEST CENTRAL VALLEYS...

CITY           SKY/WX    TMP DP  RH WIND       PRES   REMARKS
GRAND JUNCTION FAIR      43  28  55 CALM      30.02R
MONTROSE       FAIR      40  30  67 CALM      30.05R
EAGLE          SUNNY     34  28  80 CALM      30.16S
RIFLE          FAIR      40  28  62 NW3       30.07R
DELTA          NOT AVBL
NUCLA          NOT AVBL
$$

COZ017>023-064>068-011500-
...SOUTHWEST COLORADO...

CITY           SKY/WX    TMP DP  RH WIND       PRES   REMARKS
DURANGO        LGT RAIN  37  35  92 SE7       30.01R
CORTEZ         MIX PCPN  37  35  92 SW6       30.00R
PAGOSA SPRINGS CLOUDY    33  31  92 NE12G18   30.06R WCI  24
TELLURIDE      CLOUDY    31  27  83 CALM      30.03R
WOLF CREEK PAS LGT SNOW  14  14 100 MISG      30.14R VSB 3/4
$$

COZ009-010-012-014-032>034-037-058>063-011500-
...CENTRAL COLORADO...

CITY           SKY/WX    TMP DP  RH WIND       PRES   REMARKS
ASPEN          FAIR      34  16  47 SE9       30.09R WCI  27
BUENA VISTA    CLOUDY    29  22  76 S3        30.24R
COPPER MTN     NOT AVBL
BERTHOUD PASS  CLOUDY    10   0  61 NE8G20    30.18R WCI  -1
COTTONWOOD PAS CLOUDY    27  19  74 E3        30.22R
GUNNISON       CLOUDY    34  18  51 E15       30.13R WCI  24
KREMMLING      FAIR      34  21  60 E10       30.21S WCI  26
LEADVILLE      CLOUDY    18  15  88 S8        30.17R WCI   8
MONARCH PASS   CLOUDY    14  10  85 MISG      30.20R
SALIDA         CLOUDY    32  25  76 E3        30.32R
SUNLIGHT       FAIR     N/A N/A N/A NE8       30.13R
WILKERSON PASS LGT SNOW N/A N/A N/A E6        30.22R
$$

COZ069>075-011500-
...SAN LUIS VALLEY/SANGRE DE CRISTO MOUNTAINS...

CITY           SKY/WX    TMP DP  RH WIND       PRES   REMARKS
ALAMOSA        LGT SNOW  29  27  92 SE3       30.15R FOG
LA VETA PASS   SNOW      21  18  86 MISG      30.20R VSB 1/4
SAGUACHE       CLOUDY    32  19  59 E7        30.17R WCI  26
$$

COZ035-036-038>040-011500-
...NORTHERN COLORADO FRONT RANGE...

CITY           SKY/WX    TMP DP  RH WIND       PRES   REMARKS
DENVER INTL AP LGT SNOW  33  30  88 N12       30.30R FOG     WCI  24
DMNS CITY PARK   N/A     33  32  99 N9        30.32R WCI  25
AURORA         FLURRIES  32  32 100 N9        30.31R WCI  24
FRONT RANGE AP LGT SNOW  32  32 100 N12       30.30R WCI  23
ERIE MUNI ARPT LGT SNOW  33  33  99 NW5       30.32R WCI  29
BOULDER MUN AP LGT SNOW  32  32 100 NW5       30.32R WCI  27
CENTENNIAL     LGT SNOW  32  30  92 N14       30.29R FOG     WCI  22
BROOMFIELD     LGT SNOW  32  32 100 N9        30.31R VSB 3/4 WCI  24
FORT COLLINS   CLOUDY    34  30  86 NW9       30.33R WCI  26
LONGMONT       LGT SNOW  37  33  87 NW6       30.34R
$$

COZ041-046-047-076>085-087-088-011500-
...PIKES PEAK/PALMER DIVIDE AND SOUTHERN FOOTHILLS...

CITY           SKY/WX    TMP DP  RH WIND       PRES   REMARKS
COLO. SPRINGS  PTSUNNY   34  26  72 N15       30.26R WCI  24
A. F. ACADEMY  FLURRIES  32  28  86 N15       30.24R WCI  22
SCHRIEVER AFB  NOT AVBL
ELLICOTT       NOT AVBL
FALCON         CLOUDY    30  28  92 N17G30    30.24R FOG     WCI  18
FORT CARSON    FAIR      37  27  65 N23G30    30.24R
LIMON          CLOUDY    32  31  96 N28       30.24R FOG     WCI  18
MONUMENT HILL  CLOUDY    28  27  93 N20       30.26R FOG     WCI  15
TRINIDAD       LGT SNOW  32  30  92 NW6       30.26R FOG     WCI  26
$$

COZ042>045-048>051-090-091-011500-
...NORTHEAST COLORADO...

CITY           SKY/WX    TMP DP  RH WIND       PRES   REMARKS
GREELEY ARPT   CLOUDY    34  32  93 N9        30.33R WCI  26
AKRON          CLOUDY    33  31  92 NW12      30.28R WCI  24
BURLINGTON     CLOUDY    36  32  85 N25G38    30.19S
WRAY           NOT AVBL
STERLING       CLOUDY    36  34  93 NW10      30.28R
HOLYOKE        NOT AVBL
FORT MORGAN    DRIZZLE   36  32  88 NW8       30.31R
$$

COZ086-089-092>099-011500-
...SOUTHEAST COLORADO...

CITY           SKY/WX    TMP DP  RH WIND       PRES   REMARKS
PUEBLO         CLOUDY    42  29  59 N12       30.26R
LA JUNTA       CLOUDY    40  31  70 N17       30.27R
LAMAR          CLOUDY    39  33  79 N14       30.24R
SPRINGFIELD      N/A     37  31  78 N23       30.21R
$$



USA.gov is the U.S. government's official web portal to all federal, state and local government web resources and services.